Total_Precipitation_Accumulation
0.00 0.00 0.00 0.00 0.00 0.00 0.00 0.00 0.00 0.01 0.01 0.01 0.04 0.07 0.08 0.09 0.08 0.15 0.20 0.19 0.21 0.32 0.48 0.72 1.05 1.46 1.99 1.95 1.83 1.95 2.17 2.21 2.26 2.50 2.59 2.68 3.01 3.30 3.49 3.59 3.55 3.52 3.39 3.38
0.00 0.00 0.00 0.00 0.00 0.00 0.00 0.00 0.01 0.03 0.02 0.02 0.06 0.09 0.11 0.13 0.13 0.19 0.25 0.32 0.35 0.41 0.62 0.91 1.24 1.78 2.23 2.40 2.42 2.42 2.62 2.85 3.00 3.17 3.51 3.86 4.16 4.42 4.60 4.64 4.20 3.99 3.87 3.79
0.00 0.00 0.00 0.00 0.00 0.00 0.00 0.00 0.02 0.05 0.04 0.05 0.09 0.17 0.20 0.22 0.23 0.30 0.43 0.56 0.71 0.71 0.93 1.18 1.44 1.87 2.24 2.41 2.54 2.64 2.86 3.27 3.72 4.06 4.43 4.84 5.07 5.16 4.97 4.72 4.60 4.46 4.33 4.22
0.00 0.00 0.00 0.00 0.00 0.00 0.01 0.00 0.00 0.02 0.04 0.06 0.09 0.23 0.41 0.40 0.39 0.48 0.61 0.59 0.67 0.84 1.09 1.34 1.62 1.91 2.22 2.41 2.53 2.81 3.30 3.92 4.45 4.86 5.30 5.79 5.95 5.79 5.49 5.08 4.72 4.49 4.24 3.93
0.00 0.00 0.00 0.00 0.01 0.01 0.01 0.00 0.01 0.01 0.01 0.05 0.07 0.18 0.52 0.58 0.59 0.67 0.80 0.68 0.64 0.67 0.89 1.18 1.44 1.67 1.98 2.15 2.39 2.75 3.34 4.04 4.75 5.50 6.11 6.48 6.41 6.11 5.72 5.08 4.51 4.03 3.67 3.38
0.00 0.00 0.01 0.01 0.01 0.00 0.00 0.00 0.01 0.01 0.01 0.03 0.05 0.17 0.56 0.83 0.90 0.85 0.72 0.65 0.60 0.59 0.66 0.80 0.94 1.15 1.40 1.76 2.13 2.54 3.13 3.85 4.53 5.18 5.67 5.76 5.69 5.53 5.08 4.42 3.81 3.44 3.12 2.82
0.02 0.02 0.02 0.01 0.01 0.01 0.01 0.01 0.04 0.05 0.06 0.08 0.09 0.24 0.63 0.90 1.05 0.88 0.69 0.58 0.48 0.49 0.52 0.58 0.66 0.89 1.17 1.44 1.79 2.22 2.66 3.23 3.69 4.06 4.46 4.57 4.55 4.41 4.16 3.74 3.33 2.93 2.45 2.11
0.09 0.06 0.03 0.01 0.01 0.01 0.01 0.01 0.06 0.11 0.11 0.14 0.22 0.45 0.76 0.80 0.85 0.71 0.60 0.53 0.47 0.47 0.51 0.57 0.67 0.81 1.06 1.31 1.55 1.76 2.04 2.39 2.56 2.62 2.82 3.00 3.01 3.02 2.96 2.71 2.48 2.21 1.86 1.53
0.16 0.10 0.04 0.02 0.01 0.02 0.02 0.02 0.03 0.05 0.06 0.17 0.42 0.67 0.91 0.80 0.70 0.63 0.63 0.55 0.50 0.50 0.51 0.56 0.62 0.70 0.83 0.99 1.10 1.19 1.33 1.50 1.57 1.65 1.68 1.74 1.80 1.83 1.78 1.68 1.51 1.34 1.17 0.98
0.14 0.11 0.04 0.02 0.02 0.03 0.04 0.04 0.05 0.09 0.15 0.27 0.48 0.76 1.02 1.07 0.94 0.76 0.63 0.51 0.43 0.45 0.48 0.50 0.55 0.60 0.66 0.72 0.79 0.84 0.88 0.98 1.08 1.15 1.15 1.15 1.15 1.11 1.03 0.97 0.93 0.83 0.72 0.65
0.12 0.12 0.07 0.04 0.04 0.05 0.05 0.06 0.09 0.13 0.13 0.29 0.55 0.98 1.18 1.37 1.33 0.96 0.69 0.55 0.47 0.46 0.46 0.51 0.54 0.48 0.48 0.51 0.56 0.63 0.67 0.72 0.76 0.80 0.82 0.82 0.79 0.74 0.70 0.66 0.64 0.59 0.49 0.41
0.16 0.20 0.19 0.12 0.08 0.06 0.06 0.08 0.14 0.28 0.28 0.27 0.54 1.25 1.55 1.68 1.58 1.23 0.91 0.75 0.69 0.59 0.56 0.59 0.56 0.48 0.46 0.49 0.51 0.53 0.55 0.58 0.63 0.59 0.58 0.60 0.55 0.50 0.48 0.45 0.40 0.37 0.34 0.29
0.13 0.23 0.43 0.38 0.26 0.15 0.09 0.10 0.12 0.16 0.25 0.35 0.64 1.34 1.77 1.73 1.65 1.39 1.11 1.01 0.98 0.92 0.83 0.74 0.66 0.58 0.55 0.52 0.49 0.46 0.44 0.44 0.48 0.48 0.45 0.46 0.46 0.44 0.40 0.35 0.29 0.25 0.25 0.25
0.11 0.26 0.58 0.76 0.52 0.30 0.20 0.13 0.11 0.14 0.32 0.42 0.64 1.11 1.53 1.63 1.57 1.48 1.41 1.45 1.38 1.16 0.93 0.79 0.71 0.65 0.61 0.58 0.52 0.47 0.43 0.39 0.39 0.41 0.40 0.38 0.36 0.35 0.34 0.30 0.29 0.26 0.21 0.17
0.20 0.45 0.48 0.41 0.34 0.29 0.24 0.21 0.17 0.18 0.25 0.46 0.76 1.05 1.39 1.55 1.53 1.57 1.69 1.64 1.41 1.16 0.96 0.85 0.81 0.76 0.71 0.66 0.60 0.52 0.45 0.40 0.37 0.40 0.43 0.40 0.35 0.30 0.28 0.27 0.26 0.24 0.21 0.16
0.24 0.40 0.40 0.37 0.29 0.31 0.29 0.32 0.32 0.31 0.38 0.60 0.84 1.25 1.59 1.70 1.73 1.66 1.65 1.65 1.56 1.34 1.16 1.02 0.92 0.85 0.80 0.74 0.70 0.66 0.61 0.56 0.48 0.45 0.48 0.45 0.39 0.33 0.28 0.24 0.19 0.17 0.14 0.11
0.21 0.35 0.56 0.52 0.30 0.42 0.58 0.50 0.42 0.44 0.53 0.69 0.86 1.08 1.30 1.40 1.48 1.56 1.64 1.69 1.67 1.52 1.34 1.20 1.13 1.08 1.02 0.94 0.87 0.80 0.69 0.59 0.51 0.44 0.41 0.39 0.33 0.29 0.24 0.19 0.15 0.13 0.12 0.10
0.15 0.30 0.45 0.45 0.48 0.76 0.63 0.42 0.38 0.43 0.52 0.55 0.63 0.74 0.95 1.10 1.24 1.43 1.60 1.71 1.73 1.60 1.51 1.41 1.29 1.17 1.09 0.97 0.82 0.64 0.52 0.45 0.39 0.35 0.32 0.27 0.23 0.20 0.16 0.13 0.12 0.12 0.12 0.11
0.07 0.20 0.37 0.45 0.61 0.70 0.62 0.38 0.34 0.50 0.61 0.50 0.50 0.53 0.60 0.69 0.84 1.21 1.32 1.36 1.46 1.47 1.40 1.33 1.22 1.12 0.99 0.82 0.62 0.48 0.39 0.35 0.31 0.29 0.26 0.21 0.15 0.14 0.14 0.13 0.11 0.11 0.13 0.13
0.06 0.15 0.33 0.47 0.68 0.82 0.74 0.31 0.20 0.37 0.75 0.62 0.54 0.55 0.58 0.70 0.79 0.84 0.87 0.88 0.95 1.04 1.08 1.09 0.99 0.87 0.75 0.57 0.43 0.37 0.33 0.30 0.27 0.23 0.20 0.15 0.14 0.14 0.13 0.13 0.12 0.12 0.13 0.13
0.22 0.24 0.40 0.53 0.69 0.76 0.41 0.22 0.30 0.67 0.84 0.65 0.55 0.59 0.72 0.84 0.73 0.52 0.48 0.61 0.71 0.78 0.83 0.82 0.76 0.69 0.57 0.42 0.36 0.35 0.32 0.29 0.23 0.17 0.16 0.15 0.13 0.12 0.11 0.13 0.14 0.14 0.13 0.14
0.34 0.41 0.51 0.55 0.71 0.75 0.28 0.27 0.51 0.58 0.41 0.36 0.39 0.43 0.45 0.43 0.37 0.33 0.32 0.41 0.53 0.63 0.68 0.65 0.59 0.54 0.46 0.38 0.35 0.34 0.32 0.25 0.19 0.18 0.18 0.17 0.13 0.08 0.08 0.15 0.17 0.14 0.14 0.16
0.31 0.37 0.43 0.50 0.61 0.46 0.22 0.23 0.24 0.23 0.26 0.25 0.30 0.31 0.24 0.24 0.28 0.28 0.30 0.37 0.45 0.48 0.49 0.47 0.42 0.38 0.38 0.35 0.34 0.32 0.25 0.19 0.16 0.18 0.20 0.17 0.11 0.09 0.08 0.11 0.14 0.13 0.13 0.12
0.31 0.21 0.23 0.28 0.32 0.25 0.20 0.19 0.18 0.19 0.21 0.22 0.24 0.26 0.22 0.18 0.16 0.19 0.29 0.38 0.42 0.40 0.35 0.35 0.34 0.34 0.35 0.33 0.32 0.29 0.21 0.19 0.20 0.23 0.21 0.16 0.13 0.11 0.08 0.07 0.06 0.07 0.08 0.08
0.34 0.19 0.21 0.28 0.28 0.25 0.27 0.23 0.20 0.19 0.19 0.20 0.22 0.26 0.22 0.15 0.14 0.18 0.26 0.30 0.33 0.34 0.33 0.35 0.40 0.39 0.32 0.28 0.26 0.22 0.19 0.19 0.23 0.24 0.19 0.16 0.13 0.10 0.09 0.07 0.04 0.04 0.04 0.03
0.24 0.24 0.24 0.30 0.29 0.30 0.34 0.24 0.19 0.24 0.29 0.31 0.30 0.25 0.19 0.16 0.16 0.17 0.21 0.23 0.26 0.30 0.32 0.37 0.37 0.31 0.23 0.20 0.21 0.15 0.13 0.13 0.17 0.18 0.15 0.11 0.09 0.08 0.06 0.08 0.08 0.03 0.01 0.01